Volver al catálogo

STARLINK-35102

ActivoComunicacionesVLEO
NORAD 65839·PAYLOAD·🇺🇸 United States

Lanzado Sep 29, 2025 desde Vandenberg Space Force Base

Loading…

Próximos Pases (próximas 24 horas)

TLE

ActualizadoSource: CelesTrak SupGP

Época: Sep 14, 2026, 21:38 UTC

1 65839C 25221S   26257.90187500  .00073746  00000+0  21786-2 0  2574
2 65839  53.1571 286.0012 0001252  89.9115 196.0362 15.34358063    13

Sigue STARLINK-35102 en tiempo real con AllMySat

Download on the App Store